WB5OMR-9 Weather Reports


time (UTC)temp
F
wind
direction
speed
knots
gust
knots
rain 1hr
in
rain 24hr
in
rain mn
in
humidity
%
barometer
mb
20260901230719 105 247 0.0 0.0 0.00 0.00 0.00 29 1012.9
20260901225717 105 112 0.0 0.0 0.00 0.00 0.00 28 1012.9
20260901224716 106 112 0.0 0.0 0.00 0.00 0.00 28 1012.5
20260901223715 106 135 0.0 0.0 0.00 0.00 0.00 28 1012.9
20260901222714 106 112 0.0 0.0 0.00 0.00 0.00 28 1012.9
20260901221713 106 247 0.0 0.0 0.00 0.00 0.00 29 1012.9
20260901220711 107 157 0.0 0.0 0.00 0.00 0.00 28 1012.9
20260901215628 108 157 0.0 0.0 0.00 0.00 0.00 27 1012.9
20260901214627 108 112 0.0 0.0 0.00 0.00 0.00 27 1013.2
20260901213626 108 112 0.0 0.0 0.00 0.00 0.00 28 1013.2
20260901212625 107 112 0.0 0.0 0.00 0.00 0.00 28 1013.2
20260901211624 107 157 0.0 0.0 0.00 0.00 0.00 28 1013.2
20260901210623 107 157 0.0 0.0 0.00 0.00 0.00 28 1013.5
20260901205622 107 157 0.0 0.0 0.00 0.00 0.00 28 1013.5
20260901204621 106 45 0.0 0.0 0.00 0.00 0.00 29 1013.9
20260901203619 106 202 0.0 0.0 0.00 0.00 0.00 29 1013.9
20260901202618 107 180 0.0 0.0 0.00 0.00 0.00 29 1014.2
20260901201617 108 90 0.0 0.0 0.00 0.00 0.00 29 1014.2
20260901200616 107 157 0.0 0.0 0.00 0.00 0.00 29 1014.2
20260901195615 106 225 0.0 0.0 0.00 0.00 0.00 30 1014.6
20260901194613 109 180 0.0 0.0 0.00 0.00 0.00 29 1014.6
20260901193612 110 90 0.0 0.0 0.00 0.00 0.00 29 1014.9
20260901192611 108 67 0.0 0.0 0.00 0.00 0.00 30 1014.9
20260901191610 108 90 0.0 0.0 0.00 0.00 0.00 31 1014.9
20260901190609 107 112 0.0 0.0 0.00 0.00 0.00 32 1015.2
20260901185525 106 90 0.0 0.0 0.00 0.00 0.00 33 1015.6
20260901184524 105 112 0.0 0.0 0.00 0.00 0.00 34 1015.6
20260901183523 106 225 0.0 0.0 0.00 0.00 0.00 32 1015.9
20260901182522 105 135 0.0 0.0 0.00 0.00 0.00 35 1016.6
20260901181521 103 90 0.0 0.0 0.00 0.00 0.00 35 1016.3
20260901180519 103 180 0.0 0.0 0.00 0.00 0.00 36 1015.6
20260901175436 103 157 0.0 0.0 0.00 0.00 0.00 35 1015.2
20260901174352 103 157 0.0 0.0 0.00 0.00 0.00 36 1015.9
20260901173351 102 90 0.0 0.0 0.00 0.00 0.00 38 1016.3
20260901172350 101 135 0.0 0.0 0.00 0.00 0.00 39 1016.3
20260901171348 100 112 0.0 0.0 0.00 0.00 0.00 41 1016.6
20260901170305 99 90 0.0 0.0 0.00 0.00 0.00 44 1016.6
20260901165222 98 112 0.0 0.0 0.00 0.00 0.00 45 1016.6
20260901164221 97 247 0.0 0.0 0.00 0.00 0.00 46 1016.6
20260901163137 95 180 0.0 0.0 0.00 0.00 0.00 49 1016.6
20260901162136 94 112 0.0 0.0 0.00 0.00 0.00 50 1016.6
20260901161136 94 180 0.0 0.0 0.00 0.00 0.00 51 1016.6
20260901160135 93 135 0.0 0.0 0.00 0.00 0.00 53 1016.6
20260901155134 93 135 0.0 0.0 0.00 0.00 0.00 54 1016.6
20260901154132 92 135 0.0 0.0 0.00 0.00 0.00 57 1016.6
20260901153131 91 225 0.0 0.0 0.00 0.00 0.00 57 1016.6
20260901152130 91 225 0.0 0.0 0.00 0.00 0.00 57 1016.6
20260901151129 90 157 0.0 0.0 0.00 0.00 0.00 60 1016.6
20260901150128 90 202 0.0 0.0 0.00 0.00 0.00 62 1016.6
20260901145044 88 247 0.0 0.0 0.00 0.00 0.00 67 1016.6
20260901144042 88 202 0.0 0.0 0.00 0.00 0.00 69 1016.6
20260901143040 86 112 0.0 0.0 0.00 0.00 0.00 72 1016.6
20260901142039 85 90 0.0 0.0 0.00 0.00 0.00 75 1016.6
20260901140956 83 90 0.0 0.0 0.00 0.00 0.00 78 1016.3
20260901135912 82 157 0.0 0.0 0.00 0.00 0.00 80 1016.3
20260901134912 81 157 0.0 0.0 0.00 0.00 0.00 82 1016.3
20260901133828 80 135 0.0 0.0 0.00 0.00 0.00 83 1016.3
20260901132827 79 67 0.0 0.0 0.00 0.00 0.00 84 1016.3
20260901131826 79 90 0.0 0.0 0.00 0.00 0.00 84 1016.3
20260901130825 78 67 0.0 0.0 0.00 0.00 0.00 84 1016.3
20260901125824 78 45 0.0 0.0 0.00 0.00 0.00 83 1016.3
20260901124741 78 112 0.0 0.0 0.00 0.00 0.00 83 1016.3
20260901123740 78 67 0.0 0.0 0.00 0.00 0.00 82 1015.9
20260901122656 78 67 0.0 0.0 0.00 0.00 0.00 82 1015.9
20260901121656 78 45 0.0 0.0 0.00 0.00 0.00 81 1015.9
20260901120655 78 45 0.0 0.0 0.00 0.00 0.00 81 1015.9
20260901115654 78 45 0.0 0.0 0.00 0.00 0.00 80 1015.9
20260901114653 78 45 0.0 0.0 0.00 0.00 0.00 80 1015.9
20260901113651 79 45 0.0 0.0 0.00 0.00 0.00 79 1015.9
20260901112651 79 45 0.0 0.0 0.00 0.00 0.00 79 1015.9
20260901111649 79 90 0.0 0.0 0.00 0.00 0.00 79 1015.9
20260901110648 79 90 0.0 0.0 0.00 0.00 0.00 79 1015.9
20260901105604 79 90 0.0 0.0 0.00 0.00 0.00 79 1015.9
20260901104521 79 90 0.0 0.0 0.00 0.00 0.00 79 1015.9
20260901103520 79 90 0.0 0.0 0.00 0.00 0.00 78 1015.9
20260901102518 79 90 0.0 0.0 0.00 0.00 0.00 78 1015.9
20260901101517 79 90 0.0 0.0 0.00 0.00 0.00 77 1015.9
20260901100516 80 90 0.0 0.0 0.00 0.00 0.00 77 1015.9
20260901095515 80 90 0.0 0.0 0.00 0.00 0.00 77 1015.9
20260901094514 80 90 0.0 0.0 0.00 0.00 0.00 77 1015.9
20260901093512 80 90 0.0 0.0 0.00 0.00 0.00 77 1015.9
20260901092511 80 135 0.0 0.0 0.00 0.00 0.00 77 1015.9
20260901091510 80 135 0.0 0.0 0.00 0.00 0.00 77 1015.9
20260901090509 80 135 0.0 0.0 0.00 0.00 0.00 77 1015.9
20260901085508 80 135 0.0 0.0 0.00 0.00 0.00 77 1016.3
20260901084507 80 112 0.0 0.0 0.00 0.00 0.00 77 1016.3
20260901083506 80 90 0.0 0.0 0.00 0.00 0.00 77 1015.9
20260901082505 80 135 0.0 0.0 0.00 0.00 0.00 76 1015.9
20260901081504 80 157 0.0 0.0 0.00 0.00 0.00 76 1015.9
20260901080503 80 112 0.0 0.0 0.00 0.00 0.00 76 1015.9
20260901075502 80 135 0.0 0.0 0.00 0.00 0.00 76 1015.9
20260901074501 81 135 0.0 0.0 0.00 0.00 0.00 75 1015.9
20260901073500 81 157 0.0 0.0 0.00 0.00 0.00 75 1015.9
20260901072459 81 157 0.0 0.0 0.00 0.00 0.00 74 1015.9
20260901071458 81 157 0.0 0.0 0.00 0.00 0.00 73 1015.9
20260901070457 81 157 0.0 0.0 0.00 0.00 0.00 73 1015.9
20260901065456 81 157 0.0 0.0 0.00 0.00 0.00 72 1015.9
20260901064455 82 135 0.0 0.0 0.00 0.00 0.00 71 1015.9
20260901063454 82 180 0.0 0.0 0.00 0.00 0.00 70 1015.9
20260901062453 82 135 0.0 0.0 0.00 0.00 0.00 69 1015.9
20260901061410 82 135 0.0 0.0 0.00 0.00 0.00 69 1015.9
20260901060408 83 180 0.0 0.0 0.00 0.00 0.00 68 1015.6
20260901055407 83 157 0.0 0.0 0.00 0.00 0.00 67 1015.6
20260901054405 83 135 0.0 0.0 0.00 0.00 0.00 66 1015.2
20260901053404 84 157 0.0 0.0 0.00 0.00 0.00 65 1015.2
20260901052321 84 135 0.0 0.0 0.00 0.00 0.00 64 1015.2
20260901051238 84 112 0.0 0.0 0.00 0.00 0.00 63 1015.2
20260901050237 85 135 0.0 0.0 0.00 0.00 0.00 63 1015.2
20260901045154 85 112 0.0 0.0 0.00 0.00 0.00 62 1015.2
20260901044110 85 157 0.0 0.0 0.00 0.00 0.00 61 1015.2
20260901043110 86 135 0.0 0.0 0.00 0.00 0.00 60 1014.9
20260901042109 86 135 0.0 0.0 0.00 0.00 0.00 58 1015.2
20260901041108 87 135 0.0 0.0 0.00 0.00 0.00 56 1014.9
20260901040107 87 135 0.0 0.0 0.00 0.00 0.00 56 1014.9
20260901035105 87 135 0.0 0.0 0.00 0.00 0.00 55 1014.9
20260901034104 88 157 0.0 0.0 0.00 0.00 0.00 55 1014.9
20260901033103 88 135 0.0 0.0 0.00 0.00 0.00 54 1014.6
20260901032102 88 157 0.0 0.0 0.00 0.00 0.00 53 1014.6
20260901031019 89 157 0.0 0.0 0.00 0.00 0.00 52 1014.2
20260901025934 89 135 0.0 0.0 0.00 0.00 0.00 51 1013.9
20260901024851 90 135 0.0 0.0 0.00 0.00 0.00 49 1013.2
20260901023850 90 135 0.0 0.0 0.00 0.00 0.00 49 1013.2
20260901022849 91 135 0.0 0.0 0.00 0.00 0.00 48 1014.2
20260901021848 92 135 0.0 0.0 0.00 0.00 0.00 46 1014.6
20260901020846 92 112 0.0 0.0 0.00 0.00 0.00 44 1013.9
20260901015845 93 90 0.0 0.0 0.00 0.00 0.00 43 1013.5
20260901014844 93 90 0.0 0.0 0.00 0.00 0.00 42 1013.5
20260901013843 94 90 0.0 0.0 0.00 0.00 0.00 41 1013.2
20260901012842 94 112 0.0 0.0 0.00 0.00 0.00 40 1013.2
20260901011841 95 112 0.0 0.0 0.00 0.00 0.00 40 1013.2
20260901010839 96 112 0.0 0.0 0.00 0.00 0.00 39 1013.2
20260901005839 96 90 0.0 0.0 0.00 0.00 0.00 38 1013.2
20260901004837 97 112 0.0 0.0 0.00 0.00 0.00 37 1012.9
20260901003836 98 112 0.0 0.0 0.00 0.00 0.00 37 1012.9
20260901002753 98 112 0.0 0.0 0.00 0.00 0.00 36 1012.5
20260901001709 99 112 0.0 0.0 0.00 0.00 0.00 36 1012.5
20260901000709 100 135 0.0 0.0 0.00 0.00 0.00 35 1012.5
20260831235708 100 112 0.0 0.0 0.00 0.00 0.00 34 1012.5
20260831234707 101 45 0.0 0.0 0.00 0.00 0.00 33 1012.5
20260831233706 101 90 0.0 0.0 0.00 0.00 0.00 33 1012.5
20260831232704 102 67 0.0 0.0 0.00 0.00 0.00 32 1012.5
20260831231621 102 135 0.0 0.0 0.00 0.00 0.00 32 1012.5